Location: Az?znagar
(16.8373°N, 80.5091°E)
Time: 10:01:36
(UTC+00:00)

N. Korean satellite - Visible Passes

Search period start: 20 May 2022 00:00
Search period end: 30 May 2022 00:00
Orbit: 439 x 478 km, 97.3° (Epoch: 19 May)

Date Brightness Start Highest point End Pass type
(mag) Time Alt. Az. Time Alt. Az. Time Alt. Az.
21 May 7.2 23:26:11 10° NNE 23:29:34 56° E 23:32:55 10° S visible
22 May 9.4 22:54:56 10° ENE 22:57:06 16° E 22:59:14 10° SE visible
24 May 7.6 23:21:38 10° NNE 23:24:56 45° E 23:28:11 10° S visible
25 May 9.5 22:50:37 10° ENE 22:52:18 13° E 22:53:58 10° SE visible
27 May 8.0 23:16:42 10° NNE 23:19:52 36° E 23:22:59 10° SSE visible
28 May 9.7 22:46:18 10° E 22:47:06 11° E 22:47:54 10° ESE visible
